Regional Weather Roundup
Issued by NWS

Home | Current Version | Previous Version | Text Only | Print | Product List | Glossary Off
Versions: 1 2 3 4 5 6 7 8 9 10 11 12 13 14 15 16 17 18 19 20 21 22 23 24 25 26 27 28 29 30 31 32 33 34 35 36 37 38 39 40 41 42 43 44 45 46 47 48 49 50

000
ASUS43 KLOT 310503
RWRIL

ILLINOIS REGIONAL WEATHER ROUNDUP
NATIONAL WEATHER SERVICE CHICAGO/ROMEOVILLE IL
1200 AM CDT TUE MAY 31 2016

NOTE: "FAIR" INDICATES FEW OR NO CLOUDS BELOW 12,000 FEET WITH NO
SIGNIFICANT WEATHER AND/OR OBSTRUCTIONS TO VISIBILITY.

* THESE STATIONS ARE NOT UNDER NWS QUALITY CONTROL. THEY ALSO MAY NOT
  REPORT WEATHER SUCH AS PRECIPITATION OR FOG.

ILZ001-002-007-009-015-016-024-310600-
NORTHWEST ILLINOIS

CITY           SKY/WX    TMP DP  RH WIND       PRES   REMARKS
MOLINE         CLEAR     68  61  78 CALM      29.96R
STERLING*      PTCLDY    70  60  70 CALM      29.97S
$$

ILZ003-004-008-010-011-017-018-310600-
NORTH CENTRAL ILLINOIS

CITY           SKY/WX    TMP DP  RH WIND       PRES   REMARKS
ROCKFORD       PTCLDY    69  56  62 E9        30.00R
FREEPORT*      CLOUDY    65  54  67 E5        29.99S
ROCHELLE*      CLEAR     68  58  70 E8        29.99S
$$

ILZ005-006-012>014-019>023-310600-
NORTHEAST ILLINOIS

CITY           SKY/WX    TMP DP  RH WIND       PRES   REMARKS
CHICAGO-OHARE  PTCLDY    69  54  58 NE6       29.99S
CHICAGO-MIDWAY PTCLDY    71  54  54 E7        29.99S
AURORA         CLEAR     69  57  65 E8        29.99R
LANSING*       CLEAR     69  56  65 NE6       29.99S
WAUKEGAN       PTCLDY    60  58  92 CALM      30.00S
DUPAGE AIRPORT PTCLDY    68  54  60 E5        29.99R
WHEELING       CLEAR     65  56  72 CALM      30.01R
NORTHERLY ISL    N/A     63  55  75 MISG        N/A
NORTHERLY ISL    N/A     63  55  75 MISG        N/A
$$

LMZ740>746-310600-
SOUTHERN LAKE MICHIGAN

STATION/POSITION SKY/WX   TEMP    WIND        PRES    VSBY  WAVE
                          AIR SEA DIR/SP/G                  HT/PER
                          (F)     (DEG/KT/KT) (MB)    (MI)  (FT/S)
SOUTHERN BUOY              60 58  110/  4/  4 1015.5          0
WILMETTE HARBOR            60 58  340/  2/  2   N/A           0
HARRISON CRIB              65      10/  4/  5   N/A
BURNHAM HARBOR             64     360/  3/  5   N/A
CALUMET HARBOR             65      10/  4/  5 1015.0
BURNS HARBOR               65      80/  8/ 10 1015.9R
MICHIGAN CITY              64      30/  8/  9   N/A
MICHIGAN CITY 6N           64 62   50/  6/  8   N/A           1
ST. JOSEPH                 66 65   40/  4/  6   N/A           1
$$

ILZ025>027-034>036-040-047-049-050-058-095>099-310600-
WEST-CENTRAL ILLINOIS

CITY           SKY/WX    TMP DP  RH WIND       PRES   REMARKS
QUINCY         PTCLDY    68  61  78 CALM      29.98F
MACOMB*        CLEAR     72  65  80 SW6       30.00R
PITTSFIELD*    MOCLDY    71  61  71 SW5       30.00S
$$

ILZ028>032-037-038-041>044-048-051>054-059>061-310600-
CENTRAL ILLINOIS

CITY           SKY/WX    TMP DP  RH WIND       PRES   REMARKS
BLOOMINGTON    CLEAR     72  62  70 SW8       30.00F
DECATUR        CLOUDY    71  58  63 CALM      29.97F
PEORIA         CLEAR     72  63  73 CALM      29.97F
SPRINGFIELD    PTCLDY    69  59  70 CALM      29.97F
TAYLORVILLE    NOT AVBL
$$

ILZ033-039-045-046-055>057-062-063-310600-
EAST-CENTRAL ILLINOIS

CITY           SKY/WX    TMP DP  RH WIND       PRES   REMARKS
CHAMPAIGN      PTCLDY    67  60  78 S5        29.98F
MATTOON        PTCLDY    70  60  70 CALM      29.98S
$$

ILZ079-100>102-310600-
SOUTHWEST ILLINOIS

CITY           SKY/WX    TMP DP  RH WIND       PRES   REMARKS
CAHOKIA*       PTCLDY    72  62  71 CALM      29.98S
SPARTA*        MOCLDY    73  65  77 W6        29.99S
$$

ILZ064>066-069>071-074>076-080>082-084>086-088>090-092>094-310600-
SOUTH-CENTRAL ILLINOIS

CITY           SKY/WX    TMP DP  RH WIND       PRES   REMARKS
CARBONDALE     MOCLDY    68  66  93 S3        29.97F
EFFINGHAM*     CLOUDY    69  69 100 CALM      29.99S
MT. VERNON     CLOUDY    66  63  88 CALM      29.98S
SALEM*         MOCLDY    73  67  84 CALM      29.98R
$$

ILZ067-068-072-073-078-083-087-091-310600-
SOUTHEAST ILLINOIS

CITY           SKY/WX    TMP DP  RH WIND       PRES   REMARKS
LAWRENCEVILLE  MOCLDY    70  63  78 CALM      29.98S
FLORA*         MOCLDY    71  67  88 CALM      29.98R
HARRISBURG*    PTCLDY    69  68  96 CALM      29.98S
ROBINSON*      CLOUDY    65  63  91 CALM      29.98F
$$

ABBREVIATIONS USED IN REMARKS
   TC - TEMPERATURE IN CELSIUS
  WCI - WIND CHILL INDEX
   HX - HEAT INDEX
  VSB - VISIBILITY
$$




USA.gov is the U.S. government's official web portal to all federal, state and local government web resources and services.